Time,TemperatureF,DewpointF,PressureIn,WindDirection,WindDirectionDegrees,WindSpeedMPH,WindSpeedGustMPH,Humidity,HourlyPrecipIn,Conditions,Clouds,dailyrainin,SoftwareType,DateUTC
2013-01-13 00:01:00,58.1,55.5,30.17,SE,135,0.0,0.0,91,0.00,,,0.00,WUHU216HW,2013-01-13 05:01:00,
2013-01-13 00:02:00,58.3,55.7,30.16,SE,135,0.0,0.0,91,0.00,,,0.00,WUHU216HW,2013-01-13 05:02:00,
2013-01-13 00:03:00,58.3,55.7,30.17,SE,135,0.0,0.0,91,0.00,,,0.00,WUHU216HW,2013-01-13 05:03:00,
2013-01-13 00:08:00,58.1,55.5,30.16,ESE,113,0.0,0.4,91,0.00,,,0.00,WUHU216HW,2013-01-13 05:08:00,
2013-01-13 00:13:00,58.0,55.4,30.16,SSE,158,0.0,0.7,91,0.00,,,0.00,WUHU216HW,2013-01-13 05:13:00,
2013-01-13 00:18:00,58.0,55.4,30.16,ESE,113,0.0,0.7,91,0.00,,,0.00,WUHU216HW,2013-01-13 05:18:00,
2013-01-13 00:23:00,58.1,55.5,30.16,SSE,158,0.0,0.0,91,0.00,,,0.00,WUHU216HW,2013-01-13 05:23:00,
2013-01-13 00:28:00,58.1,55.5,30.16,SSE,158,0.0,0.4,91,0.00,,,0.00,WUHU216HW,2013-01-13 05:28:00,
2013-01-13 00:33:00,58.3,55.7,30.16,SSE,158,0.0,0.4,91,0.00,,,0.00,WUHU216HW,2013-01-13 05:33:00,
2013-01-13 00:38:00,58.1,55.8,30.16,ESE,113,0.0,0.2,92,0.00,,,0.00,WUHU216HW,2013-01-13 05:38:00,
2013-01-13 00:43:00,58.1,55.5,30.16,SSE,158,0.0,0.2,91,0.00,,,0.00,WUHU216HW,2013-01-13 05:43:00,
2013-01-13 00:48:00,58.1,55.8,30.16,SSE,158,0.0,0.0,92,0.00,,,0.00,WUHU216HW,2013-01-13 05:48:00,
2013-01-13 00:53:00,58.1,55.8,30.16,SE,135,0.0,0.0,92,0.00,,,0.00,WUHU216HW,2013-01-13 05:53:00,
2013-01-13 00:58:00,58.1,55.8,30.16,SE,135,0.0,0.0,92,0.00,,,0.00,WUHU216HW,2013-01-13 05:58:00,
2013-01-13 01:03:00,58.1,55.8,30.16,SE,135,0.0,0.0,92,0.00,,,0.00,WUHU216HW,2013-01-13 06:03:00,
2013-01-13 01:08:00,58.0,55.6,30.16,SE,135,0.0,0.4,92,0.00,,,0.00,WUHU216HW,2013-01-13 06:08:00,
2013-01-13 01:13:00,58.0,55.6,30.16,SSE,158,0.2,0.4,92,0.00,,,0.00,WUHU216HW,2013-01-13 06:13:00,
2013-01-13 01:18:00,58.0,55.6,30.16,SE,135,0.0,0.4,92,0.00,,,0.00,WUHU216HW,2013-01-13 06:18:00,
2013-01-13 01:23:00,58.0,55.6,30.16,South,180,0.0,0.2,92,0.00,,,0.00,WUHU216HW,2013-01-13 06:23:00,
2013-01-13 01:28:00,57.8,55.4,30.15,SSE,158,0.0,0.2,92,0.00,,,0.00,WUHU216HW,2013-01-13 06:28:00,
2013-01-13 01:33:00,57.8,55.4,30.15,NE,45,0.0,1.1,92,0.00,,,0.00,WUHU216HW,2013-01-13 06:33:00,
2013-01-13 01:38:00,57.8,55.4,30.15,SSW,203,0.0,1.1,92,0.00,,,0.00,WUHU216HW,2013-01-13 06:38:00,
2013-01-13 01:43:00,57.8,55.4,30.15,SE,135,0.2,0.4,92,0.00,,,0.00,WUHU216HW,2013-01-13 06:43:00,
2013-01-13 01:48:00,57.6,55.3,30.16,WSW,248,0.0,0.4,92,0.00,,,0.00,WUHU216HW,2013-01-13 06:48:00,
2013-01-13 01:53:00,57.6,55.3,30.16,SE,135,0.0,0.4,92,0.00,,,0.00,WUHU216HW,2013-01-13 06:53:00,
2013-01-13 01:58:00,57.8,55.4,30.16,SSE,158,0.0,0.4,92,0.00,,,0.00,WUHU216HW,2013-01-13 06:58:00,
2013-01-13 02:03:00,57.6,55.3,30.16,SSE,158,0.0,0.2,92,0.00,,,0.00,WUHU216HW,2013-01-13 07:03:00,
2013-01-13 02:08:00,57.6,55.3,30.17,South,180,0.0,0.0,92,0.00,,,0.00,WUHU216HW,2013-01-13 07:08:00,
2013-01-13 02:13:00,57.8,55.4,30.17,South,180,0.0,0.4,92,0.00,,,0.00,WUHU216HW,2013-01-13 07:13:00,
2013-01-13 02:18:00,57.8,55.4,30.17,SSE,158,0.0,0.4,92,0.00,,,0.00,WUHU216HW,2013-01-13 07:18:00,
2013-01-13 02:23:00,57.6,55.3,30.17,SE,135,0.0,1.6,92,0.00,,,0.00,WUHU216HW,2013-01-13 07:23:00,
2013-01-13 02:28:00,57.6,55.3,30.17,SE,135,0.2,1.6,92,0.00,,,0.00,WUHU216HW,2013-01-13 07:28:00,
2013-01-13 02:33:00,57.8,55.4,30.17,SSW,203,0.0,0.7,92,0.00,,,0.00,WUHU216HW,2013-01-13 07:33:00,
2013-01-13 02:38:00,57.8,55.4,30.17,ESE,113,0.2,0.7,92,0.00,,,0.00,WUHU216HW,2013-01-13 07:38:00,
2013-01-13 02:43:00,57.8,55.4,30.17,SE,135,0.2,0.7,92,0.00,,,0.00,WUHU216HW,2013-01-13 07:43:00,
2013-01-13 02:48:00,57.6,55.3,30.17,SE,135,0.0,0.4,92,0.00,,,0.00,WUHU216HW,2013-01-13 07:48:00,
2013-01-13 02:53:00,57.6,55.3,30.17,SSE,158,0.0,0.2,92,0.00,,,0.00,WUHU216HW,2013-01-13 07:53:00,
2013-01-13 02:58:00,57.6,55.3,30.17,ESE,113,0.0,0.2,92,0.00,,,0.00,WUHU216HW,2013-01-13 07:58:00,
2013-01-13 03:03:00,57.6,55.3,30.17,SSE,158,0.0,1.1,92,0.00,,,0.00,WUHU216HW,2013-01-13 08:03:00,
2013-01-13 03:08:00,57.6,55.3,30.16,South,180,0.0,1.1,92,0.00,,,0.00,WUHU216HW,2013-01-13 08:08:00,
2013-01-13 03:13:00,57.4,55.1,30.16,ENE,68,0.9,1.1,92,0.00,,,0.00,WUHU216HW,2013-01-13 08:13:00,
2013-01-13 03:18:00,57.4,55.1,30.15,SE,135,0.0,1.1,92,0.00,,,0.00,WUHU216HW,2013-01-13 08:18:00,
2013-01-13 03:23:00,57.2,54.9,30.15,SSW,203,0.4,0.7,92,0.00,,,0.00,WUHU216HW,2013-01-13 08:23:00,
2013-01-13 03:28:00,57.2,54.9,30.16,NE,45,0.0,1.1,92,0.00,,,0.00,WUHU216HW,2013-01-13 08:28:00,
2013-01-13 03:33:00,57.2,54.9,30.15,ESE,113,1.1,1.1,92,0.00,,,0.00,WUHU216HW,2013-01-13 08:33:00,
2013-01-13 03:38:00,57.2,54.9,30.15,SSE,158,2.5,2.5,92,0.00,,,0.00,WUHU216HW,2013-01-13 08:38:00,
2013-01-13 03:43:00,57.2,54.9,30.15,ESE,113,0.0,2.5,92,0.00,,,0.00,WUHU216HW,2013-01-13 08:43:00,
2013-01-13 03:48:00,57.2,54.9,30.15,SE,135,0.0,0.4,92,0.00,,,0.00,WUHU216HW,2013-01-13 08:48:00,
2013-01-13 03:53:00,57.2,54.9,30.15,ESE,113,0.0,0.7,92,0.00,,,0.00,WUHU216HW,2013-01-13 08:53:00,
2013-01-13 03:58:00,57.2,54.9,30.15,ESE,113,0.0,0.7,92,0.00,,,0.00,WUHU216HW,2013-01-13 08:58:00,
2013-01-13 04:03:00,57.2,54.9,30.15,SE,135,0.0,0.4,92,0.00,,,0.00,WUHU216HW,2013-01-13 09:03:00,
2013-01-13 04:08:00,57.1,54.7,30.15,SSE,158,0.0,0.4,92,0.00,,,0.00,WUHU216HW,2013-01-13 09:08:00,
2013-01-13 04:13:00,57.1,54.7,30.15,ENE,68,0.2,0.2,92,0.00,,,0.00,WUHU216HW,2013-01-13 09:13:00,
2013-01-13 04:18:00,57.1,54.7,30.15,SSE,158,0.0,0.2,92,0.00,,,0.00,WUHU216HW,2013-01-13 09:18:00,
2013-01-13 04:23:00,57.1,54.7,30.15,ESE,113,0.4,1.3,92,0.00,,,0.00,WUHU216HW,2013-01-13 09:23:00,
2013-01-13 04:28:00,57.1,54.7,30.15,SE,135,0.0,1.3,92,0.00,,,0.00,WUHU216HW,2013-01-13 09:28:00,
2013-01-13 04:33:00,57.1,54.7,30.15,SE,135,0.0,0.2,92,0.00,,,0.00,WUHU216HW,2013-01-13 09:33:00,
2013-01-13 04:38:00,57.1,54.7,30.15,SSE,158,0.0,0.4,92,0.00,,,0.00,WUHU216HW,2013-01-13 09:38:00,
2013-01-13 04:43:00,57.1,54.7,30.15,ESE,113,0.4,0.4,92,0.00,,,0.00,WUHU216HW,2013-01-13 09:43:00,
2013-01-13 04:48:00,57.1,54.7,30.14,ESE,113,0.0,0.4,92,0.00,,,0.00,WUHU216HW,2013-01-13 09:48:00,
2013-01-13 04:53:00,57.1,54.7,30.14,South,180,0.7,0.7,92,0.00,,,0.00,WUHU216HW,2013-01-13 09:53:00,
2013-01-13 04:58:00,56.9,54.5,30.14,SSE,158,0.4,1.6,92,0.00,,,0.00,WUHU216HW,2013-01-13 09:58:00,
2013-01-13 05:03:00,56.9,54.5,30.14,SSE,158,0.0,1.6,92,0.00,,,0.00,WUHU216HW,2013-01-13 10:03:00,
2013-01-13 05:08:00,56.9,54.5,30.14,South,180,0.0,0.9,92,0.00,,,0.00,WUHU216HW,2013-01-13 10:08:00,
2013-01-13 05:13:00,56.9,54.5,30.15,South,180,0.4,0.9,92,0.00,,,0.00,WUHU216HW,2013-01-13 10:13:00,
2013-01-13 05:18:00,56.9,54.5,30.15,SSE,158,0.7,0.7,92,0.00,,,0.00,WUHU216HW,2013-01-13 10:18:00,
2013-01-13 05:23:00,56.9,54.9,30.15,South,180,0.2,0.7,93,0.00,,,0.00,WUHU216HW,2013-01-13 10:23:00,
2013-01-13 05:28:00,56.9,54.5,30.15,South,180,0.0,0.7,92,0.00,,,0.00,WUHU216HW,2013-01-13 10:28:00,
2013-01-13 05:33:00,56.9,54.5,30.15,South,180,1.1,1.1,92,0.00,,,0.00,WUHU216HW,2013-01-13 10:33:00,
2013-01-13 05:38:00,56.9,54.9,30.15,SSE,158,0.0,1.1,93,0.00,,,0.00,WUHU216HW,2013-01-13 10:38:00,
2013-01-13 05:43:00,56.7,54.7,30.15,SSE,158,0.0,1.1,93,0.00,,,0.00,WUHU216HW,2013-01-13 10:43:00,
2013-01-13 05:48:00,56.7,54.7,30.15,SSE,158,0.7,1.1,93,0.00,,,0.00,WUHU216HW,2013-01-13 10:48:00,
2013-01-13 05:53:00,56.7,54.7,30.15,SE,135,0.0,1.1,93,0.00,,,0.00,WUHU216HW,2013-01-13 10:53:00,
2013-01-13 05:58:00,56.7,54.7,30.15,SSE,158,0.4,0.7,93,0.00,,,0.00,WUHU216HW,2013-01-13 10:58:00,
2013-01-13 06:03:00,56.7,54.7,30.15,South,180,0.4,0.7,93,0.00,,,0.00,WUHU216HW,2013-01-13 11:03:00,
2013-01-13 06:08:00,56.7,54.7,30.15,SE,135,0.2,0.9,93,0.00,,,0.00,WUHU216HW,2013-01-13 11:08:00,
2013-01-13 06:13:00,56.5,54.6,30.15,SSE,158,0.4,0.9,93,0.00,,,0.00,WUHU216HW,2013-01-13 11:13:00,
2013-01-13 06:18:00,56.5,54.6,30.15,South,180,0.0,0.4,93,0.00,,,0.00,WUHU216HW,2013-01-13 11:18:00,
2013-01-13 06:23:00,56.5,54.6,30.15,SE,135,0.2,0.4,93,0.00,,,0.00,WUHU216HW,2013-01-13 11:23:00,
2013-01-13 06:28:00,56.5,54.6,30.16,SE,135,1.6,1.6,93,0.00,,,0.00,WUHU216HW,2013-01-13 11:28:00,
2013-01-13 06:33:00,56.5,54.6,30.16,SSE,158,1.1,1.6,93,0.00,,,0.00,WUHU216HW,2013-01-13 11:33:00,
2013-01-13 06:38:00,56.5,54.6,30.16,SE,135,0.0,1.1,93,0.00,,,0.00,WUHU216HW,2013-01-13 11:38:00,
2013-01-13 06:43:00,56.5,54.6,30.16,SSE,158,0.0,0.7,93,0.00,,,0.00,WUHU216HW,2013-01-13 11:43:00,
2013-01-13 06:48:00,56.5,54.6,30.16,SE,135,0.0,0.4,93,0.00,,,0.00,WUHU216HW,2013-01-13 11:48:00,
2013-01-13 06:53:00,56.3,54.4,30.16,South,180,0.4,1.1,93,0.00,,,0.00,WUHU216HW,2013-01-13 11:53:00,
2013-01-13 06:58:00,56.3,54.4,30.17,SSE,158,0.0,0.9,93,0.00,,,0.00,WUHU216HW,2013-01-13 11:58:00,
2013-01-13 07:03:00,56.5,54.6,30.17,SSE,158,0.4,0.9,93,0.00,,,0.00,WUHU216HW,2013-01-13 12:03:00,
2013-01-13 07:08:00,56.3,54.4,30.16,SE,135,0.0,0.4,93,0.00,,,0.00,WUHU216HW,2013-01-13 12:08:00,
2013-01-13 07:13:00,56.3,54.4,30.16,East,90,0.0,1.1,93,0.00,,,0.00,WUHU216HW,2013-01-13 12:13:00,
2013-01-13 07:18:00,56.3,54.4,30.16,SSE,158,0.7,1.1,93,0.00,,,0.00,WUHU216HW,2013-01-13 12:18:00,
2013-01-13 07:23:00,56.3,54.4,30.16,SSE,158,0.0,0.9,93,0.00,,,0.00,WUHU216HW,2013-01-13 12:23:00,
2013-01-13 07:28:00,56.2,54.2,30.17,South,180,0.7,0.7,93,0.00,,,0.00,WUHU216HW,2013-01-13 12:28:00,
2013-01-13 07:33:00,56.2,54.2,30.17,South,180,0.0,0.7,93,0.00,,,0.00,WUHU216HW,2013-01-13 12:33:00,
2013-01-13 07:38:00,56.3,54.4,30.17,SSE,158,0.4,1.1,93,0.00,,,0.00,WUHU216HW,2013-01-13 12:38:00,
2013-01-13 07:43:00,56.3,54.4,30.17,SW,225,0.7,1.1,93,0.00,,,0.00,WUHU216HW,2013-01-13 12:43:00,
2013-01-13 07:48:00,56.3,54.4,30.18,SSE,158,1.1,1.8,93,0.00,,,0.00,WUHU216HW,2013-01-13 12:48:00,
2013-01-13 07:53:00,56.3,54.4,30.18,SE,135,0.0,1.8,93,0.00,,,0.00,WUHU216HW,2013-01-13 12:53:00,
2013-01-13 07:58:00,56.3,54.4,30.17,SSE,158,0.0,0.9,93,0.00,,,0.00,WUHU216HW,2013-01-13 12:58:00,
2013-01-13 08:03:00,56.3,54.4,30.17,SSE,158,0.0,1.3,93,0.00,,,0.00,WUHU216HW,2013-01-13 13:03:00,
2013-01-13 08:08:00,56.3,54.4,30.17,SSE,158,0.9,1.3,93,0.00,,,0.00,WUHU216HW,2013-01-13 13:08:00,
2013-01-13 08:13:00,56.5,54.6,30.17,South,180,0.7,0.9,93,0.00,,,0.00,WUHU216HW,2013-01-13 13:13:00,
2013-01-13 08:18:00,56.5,54.6,30.18,SE,135,0.7,0.9,93,0.00,,,0.00,WUHU216HW,2013-01-13 13:18:00,
2013-01-13 08:23:00,56.5,54.6,30.18,South,180,0.7,0.9,93,0.00,,,0.00,WUHU216HW,2013-01-13 13:23:00,
2013-01-13 08:28:00,56.5,54.6,30.18,South,180,0.9,0.9,93,0.00,,,0.00,WUHU216HW,2013-01-13 13:28:00,
2013-01-13 08:33:00,56.5,54.6,30.18,SSE,158,0.9,1.1,93,0.00,,,0.00,WUHU216HW,2013-01-13 13:33:00,
2013-01-13 08:38:00,56.7,54.7,30.18,SSE,158,0.2,1.1,93,0.00,,,0.00,WUHU216HW,2013-01-13 13:38:00,
2013-01-13 08:43:00,56.7,54.7,30.18,South,180,0.9,0.9,93,0.00,,,0.00,WUHU216HW,2013-01-13 13:43:00,
2013-01-13 08:48:00,56.9,54.9,30.18,ESE,113,0.4,1.1,93,0.00,,,0.00,WUHU216HW,2013-01-13 13:48:00,
2013-01-13 08:53:00,57.1,55.1,30.18,South,180,1.8,1.8,93,0.00,,,0.00,WUHU216HW,2013-01-13 13:53:00,
2013-01-13 08:58:00,57.2,55.3,30.18,SE,135,0.4,1.8,93,0.00,,,0.00,WUHU216HW,2013-01-13 13:58:00,
2013-01-13 09:03:00,57.4,55.5,30.18,SSW,203,0.0,0.7,93,0.00,,,0.00,WUHU216HW,2013-01-13 14:03:00,
2013-01-13 09:08:00,57.6,55.6,30.18,SE,135,0.2,1.3,93,0.00,,,0.00,WUHU216HW,2013-01-13 14:08:00,
2013-01-13 09:13:00,57.8,55.8,30.18,SE,135,1.1,1.3,93,0.00,,,0.00,WUHU216HW,2013-01-13 14:13:00,
2013-01-13 09:18:00,58.0,56.0,30.19,SE,135,1.1,1.1,93,0.00,,,0.00,WUHU216HW,2013-01-13 14:18:00,
2013-01-13 09:23:00,58.3,56.4,30.18,SW,225,0.4,1.1,93,0.00,,,0.00,WUHU216HW,2013-01-13 14:23:00,
2013-01-13 09:28:00,58.7,56.7,30.19,SW,225,1.6,1.6,93,0.00,,,0.00,WUHU216HW,2013-01-13 14:28:00,
2013-01-13 09:33:00,58.9,56.9,30.19,West,270,1.8,1.8,93,0.00,,,0.00,WUHU216HW,2013-01-13 14:33:00,
2013-01-13 09:38:00,59.2,57.3,30.19,WSW,248,0.7,2.2,93,0.00,,,0.00,WUHU216HW,2013-01-13 14:38:00,
2013-01-13 09:43:00,59.4,57.4,30.19,SE,135,0.4,2.2,93,0.00,,,0.00,WUHU216HW,2013-01-13 14:43:00,
2013-01-13 09:48:00,59.8,58.1,30.20,SSE,158,0.7,1.8,94,0.00,,,0.00,WUHU216HW,2013-01-13 14:48:00,
2013-01-13 09:53:00,60.1,58.4,30.19,South,180,0.0,1.6,94,0.00,,,0.00,WUHU216HW,2013-01-13 14:53:00,
2013-01-13 09:58:00,60.5,58.8,30.20,WSW,248,1.1,1.6,94,0.00,,,0.00,WUHU216HW,2013-01-13 14:58:00,
2013-01-13 10:03:00,60.8,59.1,30.19,SSE,158,1.1,1.1,94,0.00,,,0.00,WUHU216HW,2013-01-13 15:03:00,
2013-01-13 10:08:00,61.2,59.5,30.19,SSE,158,1.1,2.5,94,0.00,,,0.00,WUHU216HW,2013-01-13 15:08:00,
2013-01-13 10:13:00,61.4,59.7,30.19,SE,135,0.0,2.5,94,0.00,,,0.00,WUHU216HW,2013-01-13 15:13:00,
2013-01-13 10:18:00,61.7,59.8,30.19,SSW,203,0.9,1.6,93,0.00,,,0.00,WUHU216HW,2013-01-13 15:18:00,
2013-01-13 10:23:00,61.9,60.0,30.19,WSW,248,1.1,1.6,93,0.00,,,0.00,WUHU216HW,2013-01-13 15:23:00,
2013-01-13 10:28:00,62.3,60.3,30.19,ESE,113,1.3,1.6,93,0.00,,,0.00,WUHU216HW,2013-01-13 15:28:00,
2013-01-13 10:33:00,62.5,60.5,30.19,SSW,203,0.0,1.3,93,0.00,,,0.00,WUHU216HW,2013-01-13 15:33:00,
2013-01-13 10:38:00,62.8,60.9,30.19,South,180,0.0,1.1,93,0.00,,,0.00,WUHU216HW,2013-01-13 15:38:00,
2013-01-13 10:43:00,63.4,61.4,30.19,SSE,158,1.1,1.1,93,0.00,,,0.00,WUHU216HW,2013-01-13 15:43:00,
2013-01-13 10:48:00,63.5,61.6,30.18,SSW,203,0.0,1.1,93,0.00,,,0.00,WUHU216HW,2013-01-13 15:48:00,
2013-01-13 10:53:00,64.1,62.1,30.18,SE,135,1.1,1.3,93,0.00,,,0.00,WUHU216HW,2013-01-13 15:53:00,
2013-01-13 10:58:00,64.8,62.7,30.17,WSW,248,0.7,1.6,93,0.00,,,0.00,WUHU216HW,2013-01-13 15:58:00,
2013-01-13 11:03:00,65.5,63.5,30.17,SSW,203,0.0,2.5,93,0.00,,,0.00,WUHU216HW,2013-01-13 16:03:00,
2013-01-13 11:08:00,65.9,63.7,30.17,WSW,248,0.9,2.5,93,0.00,,,0.00,WUHU216HW,2013-01-13 16:08:00,
2013-01-13 11:13:00,66.4,64.3,30.16,SSE,158,0.4,1.8,93,0.00,,,0.00,WUHU216HW,2013-01-13 16:13:00,
2013-01-13 11:18:00,66.6,64.4,30.16,SSW,203,1.1,2.7,93,0.00,,,0.00,WUHU216HW,2013-01-13 16:18:00,
2013-01-13 11:23:00,67.0,64.8,30.16,South,180,1.1,2.7,93,0.00,,,0.00,WUHU216HW,2013-01-13 16:23:00,
2013-01-13 11:42:00,68.8,65.3,30.15,SE,135,2.5,2.5,89,0.00,,,0.00,WUHU216HW,2013-01-13 16:42:00,
2013-01-13 11:47:00,69.1,65.1,30.14,SSE,158,1.1,2.9,87,0.00,,,0.00,WUHU216HW,2013-01-13 16:47:00,
2013-01-13 11:52:00,69.5,64.7,30.14,WSW,248,1.1,2.9,85,0.00,,,0.00,WUHU216HW,2013-01-13 16:52:00,
2013-01-13 11:57:00,69.8,64.1,30.14,WSW,248,2.5,2.9,82,0.00,,,0.00,WUHU216HW,2013-01-13 16:57:00,
2013-01-13 12:02:00,70.6,64.8,30.13,South,180,2.0,2.9,82,0.00,,,0.00,WUHU216HW,2013-01-13 17:02:00,
2013-01-13 12:07:00,71.1,64.6,30.13,SW,225,2.9,2.9,80,0.00,,,0.00,WUHU216HW,2013-01-13 17:07:00,
2013-01-13 12:12:00,71.5,63.5,30.13,SW,225,5.6,5.6,76,0.00,,,0.00,WUHU216HW,2013-01-13 17:12:00,
2013-01-13 12:17:00,71.8,64.2,30.13,SSE,158,1.8,5.6,77,0.00,,,0.00,WUHU216HW,2013-01-13 17:17:00,
2013-01-13 12:22:00,72.0,63.3,30.13,South,180,2.7,3.6,74,0.00,,,0.00,WUHU216HW,2013-01-13 17:22:00,
2013-01-13 12:27:00,72.2,63.5,30.13,SSE,158,0.7,2.9,74,0.00,,,0.00,WUHU216HW,2013-01-13 17:27:00,
2013-01-13 12:32:00,72.2,63.5,30.12,SSE,158,1.8,3.4,74,0.00,,,0.00,WUHU216HW,2013-01-13 17:32:00,
2013-01-13 12:37:00,71.8,62.7,30.13,SSE,158,2.0,4.0,73,0.00,,,0.00,WUHU216HW,2013-01-13 17:37:00,
2013-01-13 12:42:00,72.0,62.9,30.12,SE,135,2.7,4.0,73,0.00,,,0.00,WUHU216HW,2013-01-13 17:42:00,
2013-01-13 12:47:00,72.4,63.6,30.12,SSE,158,1.8,3.8,74,0.00,,,0.00,WUHU216HW,2013-01-13 17:47:00,
2013-01-13 12:52:00,72.4,63.3,30.12,West,270,2.5,3.8,73,0.00,,,0.00,WUHU216HW,2013-01-13 17:52:00,
2013-01-13 12:57:00,72.2,62.6,30.12,South,180,1.8,4.3,72,0.00,,,0.00,WUHU216HW,2013-01-13 17:57:00,
2013-01-13 13:02:00,72.2,62.6,30.12,SSE,158,1.6,4.3,72,0.00,,,0.00,WUHU216HW,2013-01-13 18:02:00,
2013-01-13 13:07:00,72.5,63.0,30.12,WSW,248,1.8,3.4,72,0.00,,,0.00,WUHU216HW,2013-01-13 18:07:00,
2013-01-13 13:12:00,72.7,63.2,30.11,NW,315,1.3,3.4,72,0.00,,,0.00,WUHU216HW,2013-01-13 18:12:00,
2013-01-13 13:17:00,72.9,63.0,30.11,ENE,68,0.4,2.7,71,0.00,,,0.00,WUHU216HW,2013-01-13 18:17:00,
2013-01-13 13:22:00,73.3,63.4,30.11,WNW,293,0.7,2.2,71,0.00,,,0.00,WUHU216HW,2013-01-13 18:22:00,
2013-01-13 13:27:00,73.4,62.3,30.11,South,180,3.4,4.5,68,0.00,,,0.00,WUHU216HW,2013-01-13 18:27:00,
2013-01-13 13:32:00,73.3,62.1,30.11,WSW,248,5.4,5.8,68,0.00,,,0.00,WUHU216HW,2013-01-13 18:32:00,
2013-01-13 13:37:00,73.1,62.4,30.11,SE,135,4.5,5.8,69,0.00,,,0.00,WUHU216HW,2013-01-13 18:37:00,
2013-01-13 13:42:00,73.1,61.5,30.11,South,180,2.0,6.3,67,0.00,,,0.00,WUHU216HW,2013-01-13 18:42:00,
2013-01-13 13:47:00,73.1,61.9,30.11,SW,225,1.8,6.3,68,0.00,,,0.00,WUHU216HW,2013-01-13 18:47:00,
2013-01-13 13:52:00,73.3,62.1,30.11,ENE,68,0.4,4.9,68,0.00,,,0.00,WUHU216HW,2013-01-13 18:52:00,
2013-01-13 13:57:00,73.3,62.1,30.10,SE,135,2.5,4.9,68,0.00,,,0.00,WUHU216HW,2013-01-13 18:57:00,
2013-01-13 14:02:00,73.3,62.1,30.10,SE,135,3.1,3.1,68,0.00,,,0.00,WUHU216HW,2013-01-13 19:02:00,
2013-01-13 14:07:00,73.3,61.7,30.10,SE,135,2.2,4.7,67,0.00,,,0.00,WUHU216HW,2013-01-13 19:07:00,
2013-01-13 14:12:00,72.9,61.7,30.11,SSW,203,1.8,4.7,68,0.00,,,0.00,WUHU216HW,2013-01-13 19:12:00,
2013-01-13 14:17:00,72.9,61.7,30.11,ESE,113,2.5,3.4,68,0.00,,,0.00,WUHU216HW,2013-01-13 19:17:00,
2013-01-13 14:22:00,73.1,61.9,30.10,WSW,248,0.7,3.4,68,0.00,,,0.00,WUHU216HW,2013-01-13 19:22:00,
2013-01-13 14:27:00,73.1,62.4,30.10,SSW,203,1.3,3.4,69,0.00,,,0.00,WUHU216HW,2013-01-13 19:27:00,
2013-01-13 14:32:00,73.4,62.7,30.11,South,180,1.3,3.4,69,0.00,,,0.00,WUHU216HW,2013-01-13 19:32:00,
2013-01-13 14:37:00,73.6,62.5,30.11,SSE,158,1.1,4.9,68,0.00,,,0.00,WUHU216HW,2013-01-13 19:37:00,
2013-01-13 14:42:00,73.8,62.7,30.11,South,180,1.6,4.9,68,0.00,,,0.00,WUHU216HW,2013-01-13 19:42:00,
2013-01-13 14:47:00,73.8,62.7,30.10,SSE,158,1.1,4.0,68,0.00,,,0.00,WUHU216HW,2013-01-13 19:47:00,
2013-01-13 14:52:00,73.8,62.7,30.11,WSW,248,1.1,4.0,68,0.00,,,0.00,WUHU216HW,2013-01-13 19:52:00,
2013-01-13 14:57:00,73.4,61.8,30.11,SSE,158,0.7,2.9,67,0.00,,,0.00,WUHU216HW,2013-01-13 19:57:00,
2013-01-13 15:02:00,73.3,61.7,30.11,SSE,158,1.1,2.9,67,0.00,,,0.00,WUHU216HW,2013-01-13 20:02:00,
2013-01-13 15:07:00,73.1,61.9,30.11,West,270,0.7,1.8,68,0.00,,,0.00,WUHU216HW,2013-01-13 20:07:00,
2013-01-13 15:12:00,73.4,62.7,30.11,West,270,0.7,2.0,69,0.00,,,0.00,WUHU216HW,2013-01-13 20:12:00,
2013-01-13 15:17:00,73.4,62.3,30.11,WSW,248,1.6,3.6,68,0.00,,,0.00,WUHU216HW,2013-01-13 20:17:00,
2013-01-13 15:22:00,73.4,62.3,30.12,West,270,1.1,3.6,68,0.00,,,0.00,WUHU216HW,2013-01-13 20:22:00,
2013-01-13 15:27:00,73.6,62.0,30.12,SE,135,1.3,1.8,67,0.00,,,0.00,WUHU216HW,2013-01-13 20:27:00,
2013-01-13 15:32:00,73.6,62.0,30.12,SSE,158,1.3,2.2,67,0.00,,,0.00,WUHU216HW,2013-01-13 20:32:00,
2013-01-13 15:37:00,73.8,62.7,30.12,SSE,158,0.7,2.2,68,0.02,,,0.02,WUHU216HW,2013-01-13 20:37:00,
2013-01-13 15:42:00,73.6,62.0,30.12,SSE,158,2.5,3.1,67,0.02,,,0.02,WUHU216HW,2013-01-13 20:42:00,
2013-01-13 15:46:00,73.4,61.4,30.12,SW,225,0.9,3.1,66,0.02,,,0.02,WUHU216HW,2013-01-13 20:46:00,
2013-01-13 15:51:00,73.3,61.7,30.12,SW,225,1.3,2.9,67,0.02,,,0.02,WUHU216HW,2013-01-13 20:51:00,
2013-01-13 15:56:00,73.1,61.0,30.12,SW,225,0.4,2.5,66,0.02,,,0.02,WUHU216HW,2013-01-13 20:56:00,
2013-01-13 16:02:00,73.1,61.5,30.12,South,180,1.1,2.5,67,0.02,,,0.02,WUHU216HW,2013-01-13 21:02:00,
2013-01-13 16:06:00,72.9,61.3,30.12,South,180,0.4,1.8,67,0.02,,,0.02,WUHU216HW,2013-01-13 21:06:00,
2013-01-13 16:11:00,72.5,61.4,30.12,SW,225,0.2,1.8,68,0.02,,,0.02,WUHU216HW,2013-01-13 21:11:00,
2013-01-13 16:16:00,72.4,61.2,30.12,SSE,158,0.9,1.3,68,0.02,,,0.02,WUHU216HW,2013-01-13 21:16:00,
2013-01-13 16:21:00,72.0,60.8,30.12,WNW,293,2.2,3.6,68,0.02,,,0.02,WUHU216HW,2013-01-13 21:21:00,
2013-01-13 16:27:00,71.6,60.5,30.12,South,180,1.1,3.6,68,0.02,,,0.02,WUHU216HW,2013-01-13 21:27:00,
2013-01-13 16:32:00,71.6,60.5,30.12,SE,135,0.0,2.2,68,0.02,,,0.02,WUHU216HW,2013-01-13 21:32:00,
2013-01-13 16:36:00,71.3,60.6,30.12,SSE,158,0.7,1.1,69,0.00,,,0.02,WUHU216HW,2013-01-13 21:36:00,
2013-01-13 16:41:00,71.3,60.6,30.12,South,180,0.0,1.1,69,0.00,,,0.02,WUHU216HW,2013-01-13 21:41:00,
2013-01-13 16:47:00,71.1,60.4,30.13,NNW,338,0.0,0.7,69,0.00,,,0.02,WUHU216HW,2013-01-13 21:47:00,
2013-01-13 16:52:00,70.9,60.7,30.12,North,0,0.0,0.0,70,0.00,,,0.02,WUHU216HW,2013-01-13 21:52:00,
2013-01-13 16:57:00,70.7,60.5,30.13,South,180,0.0,0.0,70,0.00,,,0.02,WUHU216HW,2013-01-13 21:57:00,
2013-01-13 17:02:00,70.4,60.1,30.12,SSE,158,0.0,0.0,70,0.00,,,0.02,WUHU216HW,2013-01-13 22:02:00,
2013-01-13 17:07:00,70.2,59.9,30.12,SSE,158,0.0,0.0,70,0.00,,,0.02,WUHU216HW,2013-01-13 22:07:00,
2013-01-13 17:12:00,69.8,59.9,30.13,WSW,248,0.4,0.4,71,0.00,,,0.02,WUHU216HW,2013-01-13 22:12:00,
2013-01-13 17:17:00,69.5,59.7,30.13,WNW,293,0.0,0.4,71,0.00,,,0.02,WUHU216HW,2013-01-13 22:17:00,
2013-01-13 17:22:00,69.1,59.7,30.13,North,0,0.0,0.4,72,0.00,,,0.02,WUHU216HW,2013-01-13 22:22:00,
2013-01-13 17:27:00,68.9,59.5,30.12,East,90,0.0,0.0,72,0.00,,,0.02,WUHU216HW,2013-01-13 22:27:00,
2013-01-13 17:32:00,68.8,59.8,30.12,SSE,158,0.0,0.0,73,0.00,,,0.02,WUHU216HW,2013-01-13 22:32:00,
2013-01-13 17:37:00,68.4,59.4,30.12,South,180,0.0,0.0,73,0.00,,,0.02,WUHU216HW,2013-01-13 22:37:00,
2013-01-13 17:42:00,68.0,59.1,30.12,South,180,0.0,0.0,73,0.00,,,0.02,WUHU216HW,2013-01-13 22:42:00,
2013-01-13 17:47:00,67.9,59.3,30.12,South,180,0.0,0.0,74,0.00,,,0.02,WUHU216HW,2013-01-13 22:47:00,
2013-01-13 17:52:00,67.5,59.0,30.12,South,180,0.0,0.0,74,0.00,,,0.02,WUHU216HW,2013-01-13 22:52:00,
2013-01-13 17:57:00,67.3,58.8,30.12,South,180,0.0,0.0,74,0.00,,,0.02,WUHU216HW,2013-01-13 22:57:00,
2013-01-13 18:02:00,67.0,58.8,30.12,South,180,0.0,0.0,75,0.00,,,0.02,WUHU216HW,2013-01-13 23:02:00,
2013-01-13 18:07:00,66.8,58.6,30.12,SSE,158,0.0,0.2,75,0.00,,,0.02,WUHU216HW,2013-01-13 23:07:00,
2013-01-13 18:12:00,66.4,58.2,30.12,SSE,158,0.0,0.2,75,0.00,,,0.02,WUHU216HW,2013-01-13 23:12:00,
2013-01-13 18:17:00,66.1,58.2,30.12,South,180,0.0,0.0,76,0.00,,,0.02,WUHU216HW,2013-01-13 23:17:00,
2013-01-13 18:22:00,65.7,57.9,30.12,NW,315,0.0,0.0,76,0.00,,,0.02,WUHU216HW,2013-01-13 23:22:00,
2013-01-13 18:27:00,65.5,58.2,30.12,West,270,0.0,0.0,77,0.00,,,0.02,WUHU216HW,2013-01-13 23:27:00,
2013-01-13 18:32:00,65.3,58.0,30.12,West,270,0.0,0.0,77,0.00,,,0.02,WUHU216HW,2013-01-13 23:32:00,
2013-01-13 18:37:00,65.2,57.8,30.12,West,270,0.0,0.0,77,0.00,,,0.02,WUHU216HW,2013-01-13 23:37:00,
2013-01-13 18:42:00,65.0,58.0,30.12,WSW,248,0.0,0.0,78,0.00,,,0.02,WUHU216HW,2013-01-13 23:42:00,
2013-01-13 18:47:00,64.8,57.8,30.12,SSW,203,0.0,0.0,78,0.00,,,0.02,WUHU216HW,2013-01-13 23:47:00,
2013-01-13 18:52:00,64.4,57.4,30.12,SSE,158,0.0,0.0,78,0.00,,,0.02,WUHU216HW,2013-01-13 23:52:00,
2013-01-13 18:57:00,64.3,57.6,30.12,SSE,158,0.0,0.0,79,0.00,,,0.02,WUHU216HW,2013-01-13 23:57:00,
2013-01-13 19:02:00,63.9,57.2,30.12,SSE,158,0.0,0.0,79,0.00,,,0.02,WUHU216HW,2013-01-14 00:02:00,
2013-01-13 19:07:00,63.7,57.4,30.12,West,270,0.0,0.0,80,0.00,,,0.02,WUHU216HW,2013-01-14 00:07:00,
2013-01-13 19:12:00,63.5,56.9,30.12,SE,135,0.0,0.7,79,0.00,,,0.02,WUHU216HW,2013-01-14 00:12:00,
2013-01-13 19:17:00,63.4,56.7,30.12,SE,135,0.0,0.7,79,0.00,,,0.02,WUHU216HW,2013-01-14 00:17:00,
2013-01-13 19:22:00,63.4,56.7,30.12,SSW,203,0.2,0.4,79,0.00,,,0.02,WUHU216HW,2013-01-14 00:22:00,
2013-01-13 19:27:00,63.4,57.1,30.12,SW,225,0.0,0.4,80,0.00,,,0.02,WUHU216HW,2013-01-14 00:27:00,
2013-01-13 19:32:00,63.4,57.1,30.12,SSW,203,0.0,0.4,80,0.00,,,0.02,WUHU216HW,2013-01-14 00:32:00,
2013-01-13 19:37:00,63.4,57.1,30.11,South,180,0.2,0.4,80,0.00,,,0.02,WUHU216HW,2013-01-14 00:37:00,
2013-01-13 19:42:00,63.4,57.4,30.11,South,180,0.0,0.4,81,0.00,,,0.02,WUHU216HW,2013-01-14 00:42:00,
2013-01-13 19:47:00,63.4,57.4,30.11,South,180,0.0,0.2,81,0.00,,,0.02,WUHU216HW,2013-01-14 00:47:00,
2013-01-13 19:52:00,63.4,57.4,30.11,WSW,248,0.0,0.0,81,0.00,,,0.02,WUHU216HW,2013-01-14 00:52:00,
2013-01-13 19:57:00,63.2,57.3,30.11,NNW,338,0.0,0.4,81,0.00,,,0.02,WUHU216HW,2013-01-14 00:57:00,
2013-01-13 20:02:00,63.4,57.4,30.11,NNW,338,0.0,0.4,81,0.00,,,0.02,WUHU216HW,2013-01-14 01:02:00,
2013-01-13 20:07:00,63.4,57.4,30.11,NW,315,0.0,0.0,81,0.00,,,0.02,WUHU216HW,2013-01-14 01:07:00,
2013-01-13 20:12:00,63.2,57.3,30.11,NNW,338,0.0,0.0,81,0.00,,,0.02,WUHU216HW,2013-01-14 01:12:00,
2013-01-13 20:17:00,63.2,57.3,30.12,NNW,338,0.0,0.0,81,0.00,,,0.02,WUHU216HW,2013-01-14 01:17:00,
2013-01-13 20:22:00,63.0,57.1,30.12,SSE,158,0.0,0.0,81,0.00,,,0.02,WUHU216HW,2013-01-14 01:22:00,
2013-01-13 20:27:00,63.0,57.1,30.12,SSE,158,0.0,0.0,81,0.00,,,0.02,WUHU216HW,2013-01-14 01:27:00,
2013-01-13 20:32:00,62.8,56.9,30.11,SSE,158,0.0,0.0,81,0.00,,,0.02,WUHU216HW,2013-01-14 01:32:00,
2013-01-13 20:37:00,62.6,56.7,30.12,South,180,0.0,0.0,81,0.00,,,0.02,WUHU216HW,2013-01-14 01:37:00,
2013-01-13 20:42:00,62.6,57.1,30.11,South,180,0.0,0.0,82,0.00,,,0.02,WUHU216HW,2013-01-14 01:42:00,
2013-01-13 20:47:00,62.5,56.9,30.12,South,180,0.0,0.0,82,0.00,,,0.02,WUHU216HW,2013-01-14 01:47:00,
2013-01-13 20:52:00,62.5,56.9,30.11,South,180,0.0,0.0,82,0.00,,,0.02,WUHU216HW,2013-01-14 01:52:00,
2013-01-13 20:57:00,62.3,56.7,30.11,South,180,0.0,0.0,82,0.00,,,0.02,WUHU216HW,2013-01-14 01:57:00,
2013-01-13 21:02:00,62.1,56.9,30.11,South,180,0.0,0.4,83,0.00,,,0.02,WUHU216HW,2013-01-14 02:02:00,
2013-01-13 21:07:00,61.9,56.7,30.11,South,180,0.2,0.7,83,0.00,,,0.02,WUHU216HW,2013-01-14 02:07:00,
2013-01-13 21:12:00,61.7,56.5,30.10,South,180,0.0,0.7,83,0.00,,,0.02,WUHU216HW,2013-01-14 02:12:00,
2013-01-13 21:17:00,61.6,56.3,30.11,SW,225,0.0,1.1,83,0.00,,,0.02,WUHU216HW,2013-01-14 02:17:00,
2013-01-13 21:22:00,61.6,56.3,30.11,SSE,158,0.0,1.1,83,0.00,,,0.02,WUHU216HW,2013-01-14 02:22:00,
2013-01-13 21:27:00,61.6,56.7,30.11,South,180,0.0,0.2,84,0.00,,,0.02,WUHU216HW,2013-01-14 02:27:00,
2013-01-13 21:32:00,61.7,56.9,30.12,SSE,158,0.0,0.9,84,0.00,,,0.02,WUHU216HW,2013-01-14 02:32:00,
2013-01-13 21:37:00,61.7,56.9,30.12,SSE,158,0.0,0.9,84,0.00,,,0.02,WUHU216HW,2013-01-14 02:37:00,
2013-01-13 21:42:00,61.7,56.9,30.12,South,180,0.4,0.7,84,0.00,,,0.02,WUHU216HW,2013-01-14 02:42:00,
2013-01-13 21:47:00,61.6,56.7,30.12,SE,135,0.0,1.1,84,0.00,,,0.02,WUHU216HW,2013-01-14 02:47:00,
2013-01-13 21:52:00,61.6,56.7,30.12,SE,135,0.4,1.1,84,0.00,,,0.02,WUHU216HW,2013-01-14 02:52:00,
2013-01-13 21:57:00,61.6,57.1,30.12,South,180,1.1,1.1,85,0.00,,,0.02,WUHU216HW,2013-01-14 02:57:00,
2013-01-13 22:02:00,61.6,57.1,30.12,SE,135,0.0,1.1,85,0.00,,,0.02,WUHU216HW,2013-01-14 03:02:00,
2013-01-13 22:07:00,61.6,57.1,30.12,SSW,203,0.2,1.1,85,0.00,,,0.02,WUHU216HW,2013-01-14 03:07:00,
2013-01-13 22:12:00,61.6,57.1,30.12,WSW,248,0.4,1.6,85,0.00,,,0.02,WUHU216HW,2013-01-14 03:12:00,
2013-01-13 22:17:00,61.6,57.1,30.12,South,180,0.4,1.8,85,0.00,,,0.02,WUHU216HW,2013-01-14 03:17:00,
2013-01-13 22:22:00,61.6,57.1,30.13,SSW,203,1.1,1.8,85,0.00,,,0.02,WUHU216HW,2013-01-14 03:22:00,
2013-01-13 22:27:00,61.6,57.1,30.13,South,180,0.0,1.8,85,0.00,,,0.02,WUHU216HW,2013-01-14 03:27:00,
2013-01-13 22:32:00,61.7,57.2,30.12,South,180,0.4,1.1,85,0.00,,,0.02,WUHU216HW,2013-01-14 03:32:00,
2013-01-13 22:37:00,61.7,57.2,30.13,SSE,158,0.9,2.0,85,0.00,,,0.02,WUHU216HW,2013-01-14 03:37:00,
2013-01-13 22:42:00,61.7,57.2,30.12,South,180,0.4,2.0,85,0.00,,,0.02,WUHU216HW,2013-01-14 03:42:00,
2013-01-13 22:47:00,61.9,57.3,30.12,South,180,1.1,1.3,85,0.00,,,0.02,WUHU216HW,2013-01-14 03:47:00,
2013-01-13 22:52:00,61.9,57.3,30.13,South,180,0.7,1.3,85,0.00,,,0.02,WUHU216HW,2013-01-14 03:52:00,
2013-01-13 22:57:00,61.9,57.3,30.13,South,180,0.9,1.3,85,0.00,,,0.02,WUHU216HW,2013-01-14 03:57:00,
2013-01-13 23:02:00,61.7,57.2,30.12,West,270,0.9,1.8,85,0.00,,,0.02,WUHU216HW,2013-01-14 04:02:00,
2013-01-13 23:07:00,61.7,57.2,30.13,SSW,203,0.9,1.8,85,0.00,,,0.02,WUHU216HW,2013-01-14 04:07:00,
2013-01-13 23:12:00,61.9,57.7,30.13,SSE,158,1.1,1.6,86,0.00,,,0.02,WUHU216HW,2013-01-14 04:12:00,
2013-01-13 23:17:00,62.1,57.9,30.13,WSW,248,2.0,2.0,86,0.00,,,0.02,WUHU216HW,2013-01-14 04:17:00,
2013-01-13 23:22:00,62.3,57.7,30.13,South,180,0.4,2.0,85,0.00,,,0.02,WUHU216HW,2013-01-14 04:22:00,
2013-01-13 23:27:00,62.3,57.7,30.14,SSE,158,0.7,2.0,85,0.00,,,0.02,WUHU216HW,2013-01-14 04:27:00,
2013-01-13 23:32:00,62.3,57.7,30.13,SSW,203,0.9,1.1,85,0.00,,,0.02,WUHU216HW,2013-01-14 04:32:00,
2013-01-13 23:37:00,62.3,57.7,30.13,SW,225,0.7,1.8,85,0.00,,,0.02,WUHU216HW,2013-01-14 04:37:00,
2013-01-13 23:42:00,62.3,57.7,30.13,WSW,248,1.3,2.5,85,0.00,,,0.02,WUHU216HW,2013-01-14 04:42:00,
2013-01-13 23:47:00,62.5,57.9,30.12,WSW,248,1.1,2.9,85,0.00,,,0.02,WUHU216HW,2013-01-14 04:47:00,
2013-01-13 23:52:00,62.6,58.1,30.12,SW,225,1.3,3.6,85,0.00,,,0.02,WUHU216HW,2013-01-14 04:52:00,
2013-01-13 23:57:00,62.8,58.2,30.12,SSW,203,2.0,3.6,85,0.00,,,0.02,WUHU216HW,2013-01-14 04:57:00,